El Centro, CA

9:24 PM PDT on May 25, 2017 (GMT -0700)
El Centro Naval Air Facility

Weather History for KNJK - November, 2013

Change the Weather History Date:

Tuesday, November 5, 2013

  Actual Average Record
Temperature  
Mean Temperature 62 °F -  
Max Temperature 75 °F 78 °F 93 °F (2012)
Min Temperature 48 °F 53 °F 46 °F (2015)
Degree Days  
Heating Degree Days 4    
Growing Degree Days 12 (Base 50)    
Moisture  
Dew Point 28 °F    
Average Humidity 33    
Maximum Humidity 63    
Minimum Humidity 12    
Precipitation  
Precipitation 0.00 in - - ()
Sea Level Pressure  
Sea Level Pressure 30.11 in    
Wind  
Wind Speed 9 mph (NW)    
Max Wind Speed 21 mph    
Max Gust Speed -    
Visibility 10 miles    
Events      
Averages and records for this station are not official NWS values.
T = Trace of Precipitation, MM = Missing Value Source: NWS Daily Summary

Daily Weather History Graph

Daily Weather History Graph

Search for Another Location

Airport or City:

Trip Planner

Search our weather history database for the weather conditions in past years. The results will help you decide how hot, cold, wet, or windy it might be!

Date:

Astronomy

Nov. 05, 2013 Rise Set
Actual Time 6:04 AM PST 4:47 PM PST
Civil Twilight 5:38 AM PST 5:13 PM PST
Nautical Twilight 5:09 AM PST 5:42 PM PST
Astronomical Twilight 4:40 AM PST 6:11 PM PST
Moon 8:19 AM PST (11/5) 6:58 PM PST (11/5)
Length of Visible Light 11h 35m
Length of Day
10h 43m
Waxing Crescent, 7% of the Moon is Illuminated
Nov 5
Waxing Crescent
Nov 9
First Quarter
Nov 17
Full
Nov 25
Last Quarter
Dec 2
New

Hourly Weather History & Observations

Time (PST) Temp. Dew Point Humidity Pressure Visibility Wind Dir Wind Speed Gust Speed Precip Events Conditions
12:56 AM 60.1 °F 37.0 °F 42% 29.92 in 10.0 mi NW 11.5 mph - N/A   Clear
1:56 AM 55.0 °F 35.1 °F 47% 29.94 in 10.0 mi NW 8.1 mph - N/A   Clear
2:56 AM 52.0 °F 37.0 °F 57% 29.96 in 10.0 mi ESE 4.6 mph - N/A   Clear
3:56 AM 51.1 °F 37.9 °F 61% 29.99 in 10.0 mi NW 5.8 mph - N/A   Clear
4:56 AM 51.1 °F 39.0 °F 63% 30.02 in 10.0 mi NNW 3.5 mph - N/A   Clear
5:56 AM 48.9 °F 36.0 °F 61% 30.06 in 10.0 mi West 6.9 mph - N/A   Clear
6:56 AM 52.0 °F 35.1 °F 53% 30.09 in 10.0 mi West 6.9 mph - N/A   Clear
7:56 AM 64.9 °F 37.0 °F 36% 30.12 in 10.0 mi North 8.1 mph - N/A   Clear
8:56 AM 70.0 °F 32.0 °F 25% 30.15 in 10.0 mi North 13.8 mph - N/A   Clear
9:56 AM 72.0 °F 26.1 °F 18% 30.15 in 10.0 mi NNW 18.4 mph - N/A   Clear
10:56 AM 73.0 °F 21.9 °F 15% 30.14 in 10.0 mi North 20.7 mph - N/A   Clear
11:56 AM 73.9 °F 21.0 °F 14% 30.13 in 10.0 mi NNW 16.1 mph - N/A   Clear
12:56 PM 73.9 °F 21.9 °F 14% 30.12 in 10.0 mi NNW 16.1 mph - N/A   Clear
1:56 PM 75.0 °F 19.0 °F 12% 30.12 in 10.0 mi NNW 11.5 mph - N/A   Clear
2:56 PM 73.9 °F 18.0 °F 12% 30.13 in 10.0 mi NNW 13.8 mph - N/A   Clear
3:56 PM 73.0 °F 21.0 °F 14% 30.13 in 10.0 mi NNW 10.4 mph - N/A   Clear
4:56 PM 66.9 °F 24.1 °F 20% 30.14 in 10.0 mi NNW 8.1 mph - N/A   Clear
5:56 PM 59.0 °F 21.0 °F 23% 30.15 in 10.0 mi WNW 3.5 mph - N/A   Clear
6:56 PM 61.0 °F 25.0 °F 25% 30.17 in 10.0 mi West 5.8 mph - N/A   Clear
7:56 PM 54.0 °F 27.0 °F 35% 30.19 in 10.0 mi Calm Calm - N/A   Clear
8:56 PM 50.0 °F 21.0 °F 32% 30.20 in 10.0 mi WNW 5.8 mph - N/A   Clear
9:56 PM 50.0 °F 27.0 °F 41% 30.21 in 10.0 mi NW 6.9 mph - N/A   Clear
10:56 PM 50.0 °F 27.0 °F 41% 30.22 in 10.0 mi WSW 8.1 mph - N/A   Clear
11:56 PM 48.0 °F 26.1 °F 42% 30.22 in 10.0 mi WSW 9.2 mph - N/A   Clear